Time,TemperatureF,DewpointF,PressureIn,WindDirection,WindDirectionDegrees,WindSpeedMPH,WindSpeedGustMPH,Humidity,HourlyPrecipIn,Conditions,Clouds,dailyrainin,SoftwareType,DateUTC
2013-04-12 00:02:00,45.0,43.0,29.59,West,271,9.0,-999.0,92,-99.99,,,0.60,weatherlink.com 1.10,2013-04-12 04:02:00,
2013-04-12 00:17:00,44.8,42.0,29.59,West,265,10.0,-999.0,88,-99.99,,,0.60,weatherlink.com 1.10,2013-04-12 04:17:00,
2013-04-12 00:32:00,44.6,42.0,29.59,NW,313,10.0,-999.0,90,-99.99,,,0.60,weatherlink.com 1.10,2013-04-12 04:32:00,
2013-04-12 00:47:00,43.7,41.0,29.59,West,269,6.0,-999.0,90,-99.99,,,0.00,weatherlink.com 1.10,2013-04-12 04:47:00,
2013-04-12 01:02:00,43.1,41.0,29.60,West,261,9.0,-999.0,91,-99.99,,,0.00,weatherlink.com 1.10,2013-04-12 05:02:00,
2013-04-12 01:17:00,42.7,40.0,29.61,West,261,8.0,-999.0,91,-99.99,,,0.00,weatherlink.com 1.10,2013-04-12 05:17:00,
2013-04-12 01:32:00,42.2,40.0,29.61,West,281,4.0,-999.0,90,-99.99,,,0.00,weatherlink.com 1.10,2013-04-12 05:32:00,
2013-04-12 01:47:00,41.8,38.0,29.61,West,271,16.0,-999.0,87,-99.99,,,0.00,weatherlink.com 1.10,2013-04-12 05:47:00,
2013-04-12 02:02:00,41.4,37.0,29.62,WSW,252,12.0,-999.0,85,-99.99,,,0.00,weatherlink.com 1.10,2013-04-12 06:02:00,
2013-04-12 02:17:00,41.2,37.0,29.62,WSW,249,9.0,-999.0,86,-99.99,,,0.00,weatherlink.com 1.10,2013-04-12 06:17:00,
2013-04-12 02:32:00,40.9,37.0,29.61,West,269,5.0,-999.0,86,-99.99,,,0.00,weatherlink.com 1.10,2013-04-12 06:32:00,
2013-04-12 02:47:00,40.6,37.0,29.61,WSW,258,8.0,-999.0,86,-99.99,,,0.00,weatherlink.com 1.10,2013-04-12 06:47:00,
2013-04-12 03:02:00,40.6,37.0,29.61,WSW,250,11.0,-999.0,87,-99.99,,,0.00,weatherlink.com 1.10,2013-04-12 07:02:00,
2013-04-12 03:17:00,40.6,37.0,29.61,West,259,13.0,-999.0,88,-99.99,,,0.00,weatherlink.com 1.10,2013-04-12 07:17:00,
2013-04-12 03:32:00,40.4,37.0,29.61,West,266,9.0,-999.0,87,-99.99,,,0.00,weatherlink.com 1.10,2013-04-12 07:32:00,
2013-04-12 03:47:00,40.2,37.0,29.61,WSW,253,9.0,-999.0,87,-99.99,,,0.00,weatherlink.com 1.10,2013-04-12 07:47:00,
2013-04-12 04:02:00,39.8,36.0,29.60,WSW,248,13.0,-999.0,86,-99.99,,,0.00,weatherlink.com 1.10,2013-04-12 08:02:00,
2013-04-12 04:17:00,39.6,36.0,29.61,WSW,238,8.0,-999.0,85,-99.99,,,0.00,weatherlink.com 1.10,2013-04-12 08:17:00,
2013-04-12 04:32:00,39.5,36.0,29.61,West,270,6.0,-999.0,86,-99.99,,,0.00,weatherlink.com 1.10,2013-04-12 08:32:00,
2013-04-12 04:47:00,39.3,36.0,29.61,WSW,254,8.0,-999.0,86,-99.99,,,0.00,weatherlink.com 1.10,2013-04-12 08:47:00,
2013-04-12 05:02:00,39.2,35.0,29.61,WSW,257,7.0,-999.0,83,-99.99,,,0.00,weatherlink.com 1.10,2013-04-12 09:02:00,
2013-04-12 05:17:00,39.1,35.0,29.61,WSW,238,10.0,-999.0,85,-99.99,,,0.00,weatherlink.com 1.10,2013-04-12 09:17:00,
2013-04-12 05:32:00,38.9,35.0,29.61,WSW,243,9.0,-999.0,85,-99.99,,,0.00,weatherlink.com 1.10,2013-04-12 09:32:00,
2013-04-12 05:47:00,38.7,34.0,29.62,SW,236,13.0,-999.0,83,-99.99,,,0.00,weatherlink.com 1.10,2013-04-12 09:47:00,
2013-04-12 06:17:00,38.4,32.0,29.62,West,262,9.0,-999.0,78,-99.99,,,0.00,weatherlink.com 1.10,2013-04-12 10:17:00,
2013-04-12 06:32:00,38.4,32.0,29.63,WSW,257,7.0,-999.0,79,-99.99,,,0.00,weatherlink.com 1.10,2013-04-12 10:32:00,
2013-04-12 06:47:00,38.3,33.0,29.63,WSW,242,8.0,-999.0,81,-99.99,,,0.00,weatherlink.com 1.10,2013-04-12 10:47:00,
2013-04-12 07:03:00,38.3,33.0,29.64,WSW,238,7.0,-999.0,81,-99.99,,,0.00,weatherlink.com 1.10,2013-04-12 11:03:00,
2013-04-12 07:18:00,38.3,33.0,29.65,SW,228,8.0,-999.0,82,-99.99,,,0.00,weatherlink.com 1.10,2013-04-12 11:18:00,
2013-04-12 07:33:00,38.3,33.0,29.65,SW,234,7.0,-999.0,82,-99.99,,,0.00,weatherlink.com 1.10,2013-04-12 11:33:00,
2013-04-12 07:48:00,38.3,33.0,29.66,SW,235,10.0,-999.0,81,-99.99,,,0.00,weatherlink.com 1.10,2013-04-12 11:48:00,
2013-04-12 08:03:00,38.4,33.0,29.66,SW,232,8.0,-999.0,82,-99.99,,,0.00,weatherlink.com 1.10,2013-04-12 12:03:00,
2013-04-12 08:18:00,38.4,34.0,29.67,SW,234,9.0,-999.0,83,-99.99,,,0.00,weatherlink.com 1.10,2013-04-12 12:18:00,
2013-04-12 08:33:00,38.5,34.0,29.67,SW,229,11.0,-999.0,84,-99.99,,,0.00,weatherlink.com 1.10,2013-04-12 12:33:00,
2013-04-12 08:48:00,38.6,34.0,29.67,SSW,209,11.0,-999.0,84,-99.99,,,0.00,weatherlink.com 1.10,2013-04-12 12:48:00,
2013-04-12 09:03:00,38.7,34.0,29.67,SW,229,14.0,-999.0,84,-99.99,,,0.00,weatherlink.com 1.10,2013-04-12 13:03:00,
2013-04-12 09:18:00,38.9,35.0,29.68,SW,227,10.0,-999.0,85,-99.99,,,0.00,weatherlink.com 1.10,2013-04-12 13:18:00,
2013-04-12 09:33:00,39.3,35.0,29.68,SW,236,15.0,-999.0,85,-99.99,,,0.00,weatherlink.com 1.10,2013-04-12 13:33:00,
2013-04-12 09:48:00,39.6,35.0,29.67,WSW,238,13.0,-999.0,84,-99.99,,,0.00,weatherlink.com 1.10,2013-04-12 13:48:00,
2013-04-12 10:03:00,39.8,35.0,29.67,SW,226,15.0,-999.0,83,-99.99,,,0.00,weatherlink.com 1.10,2013-04-12 14:03:00,
2013-04-12 10:18:00,40.0,35.0,29.68,WSW,246,13.0,-999.0,83,-99.99,,,0.00,weatherlink.com 1.10,2013-04-12 14:18:00,
2013-04-12 10:33:00,40.4,36.0,29.68,WSW,253,16.0,-999.0,83,-99.99,,,0.00,weatherlink.com 1.10,2013-04-12 14:33:00,
2013-04-12 10:48:00,40.2,35.0,29.68,WSW,238,19.0,-999.0,82,-99.99,,,0.00,weatherlink.com 1.10,2013-04-12 14:48:00,
2013-04-12 11:03:00,40.6,36.0,29.68,SW,216,15.0,-999.0,82,-99.99,,,0.00,weatherlink.com 1.10,2013-04-12 15:03:00,
2013-04-12 11:18:00,40.9,36.0,29.68,WSW,241,14.0,-999.0,83,-99.99,,,0.00,weatherlink.com 1.10,2013-04-12 15:18:00,
2013-04-12 11:33:00,41.1,36.0,29.69,WSW,240,11.0,-999.0,81,-99.99,,,0.00,weatherlink.com 1.10,2013-04-12 15:33:00,
2013-04-12 11:48:00,41.6,36.0,29.69,WSW,252,14.0,-999.0,80,-99.99,,,0.00,weatherlink.com 1.10,2013-04-12 15:48:00,
2013-04-12 12:03:00,41.9,37.0,29.70,WSW,239,14.0,-999.0,81,-99.99,,,0.00,weatherlink.com 1.10,2013-04-12 16:03:00,
2013-04-12 12:18:00,41.8,36.0,29.71,SW,225,16.0,-999.0,80,-99.99,,,0.00,weatherlink.com 1.10,2013-04-12 16:18:00,
2013-04-12 12:33:00,41.8,36.0,29.71,SW,232,14.0,-999.0,79,-99.99,,,0.00,weatherlink.com 1.10,2013-04-12 16:33:00,
2013-04-12 12:48:00,41.8,35.0,29.72,WSW,251,15.0,-999.0,78,-99.99,,,0.00,weatherlink.com 1.10,2013-04-12 16:48:00,
2013-04-12 13:03:00,41.9,35.0,29.72,SW,232,15.0,-999.0,77,-99.99,,,0.00,weatherlink.com 1.10,2013-04-12 17:03:00,
2013-04-12 13:18:00,41.2,35.0,29.72,WSW,242,12.0,-999.0,79,-99.99,,,0.00,weatherlink.com 1.10,2013-04-12 17:18:00,
2013-04-12 13:33:00,41.6,35.0,29.73,WSW,237,14.0,-999.0,77,-99.99,,,0.00,weatherlink.com 1.10,2013-04-12 17:33:00,
2013-04-12 13:48:00,41.7,35.0,29.73,WSW,243,13.0,-999.0,77,-99.99,,,0.00,weatherlink.com 1.10,2013-04-12 17:48:00,
2013-04-12 15:33:00,42.7,36.0,29.77,WSW,246,18.0,-999.0,77,-99.99,,,0.00,weatherlink.com 1.10,2013-04-12 19:33:00,
2013-04-12 15:48:00,42.5,36.0,29.77,WSW,244,22.0,-999.0,78,-99.99,,,0.00,weatherlink.com 1.10,2013-04-12 19:48:00,
2013-04-12 16:03:00,41.6,37.0,29.77,WSW,239,13.0,-999.0,85,-99.99,,,0.00,weatherlink.com 1.10,2013-04-12 20:03:00,
2013-04-12 16:18:00,41.7,38.0,29.78,WSW,240,15.0,-999.0,87,-99.99,,,0.00,weatherlink.com 1.10,2013-04-12 20:18:00,
2013-04-12 16:33:00,42.9,38.0,29.78,SW,228,13.0,-999.0,84,-99.99,,,0.00,weatherlink.com 1.10,2013-04-12 20:33:00,
2013-04-12 16:48:00,43.0,38.0,29.78,WSW,238,10.0,-999.0,83,-99.99,,,0.00,weatherlink.com 1.10,2013-04-12 20:48:00,
2013-04-12 17:03:00,42.9,37.0,29.79,West,263,16.0,-999.0,81,-99.99,,,0.00,weatherlink.com 1.10,2013-04-12 21:03:00,
2013-04-12 17:18:00,42.4,37.0,29.80,WSW,238,18.0,-999.0,82,-99.99,,,0.00,weatherlink.com 1.10,2013-04-12 21:18:00,
2013-04-12 17:33:00,42.2,37.0,29.80,WSW,248,20.0,-999.0,83,-99.99,,,0.00,weatherlink.com 1.10,2013-04-12 21:33:00,
2013-04-12 17:49:00,42.2,37.0,29.81,WSW,242,14.0,-999.0,83,-99.99,,,0.00,weatherlink.com 1.10,2013-04-12 21:49:00,
2013-04-12 18:04:00,42.4,38.0,29.82,SW,228,9.0,-999.0,83,-99.99,,,0.00,weatherlink.com 1.10,2013-04-12 22:04:00,
2013-04-12 18:19:00,42.7,38.0,29.82,WSW,242,12.0,-999.0,83,-99.99,,,0.00,weatherlink.com 1.10,2013-04-12 22:19:00,
2013-04-12 18:34:00,42.8,38.0,29.83,West,267,10.0,-999.0,83,-99.99,,,0.00,weatherlink.com 1.10,2013-04-12 22:34:00,
2013-04-12 18:49:00,42.8,37.0,29.84,WSW,245,19.0,-999.0,81,-99.99,,,0.00,weatherlink.com 1.10,2013-04-12 22:49:00,
2013-04-12 19:04:00,42.6,37.0,29.84,WNW,284,7.0,-999.0,80,-99.99,,,0.00,weatherlink.com 1.10,2013-04-12 23:04:00,
2013-04-12 19:19:00,42.4,37.0,29.84,WSW,252,11.0,-999.0,81,-99.99,,,0.00,weatherlink.com 1.10,2013-04-12 23:19:00,
2013-04-12 19:34:00,42.2,37.0,29.85,WSW,258,8.0,-999.0,82,-99.99,,,0.00,weatherlink.com 1.10,2013-04-12 23:34:00,
2013-04-12 19:49:00,42.0,37.0,29.85,WSW,247,9.0,-999.0,82,-99.99,,,0.00,weatherlink.com 1.10,2013-04-12 23:49:00,
2013-04-12 20:04:00,42.0,36.0,29.85,WSW,252,11.0,-999.0,80,-99.99,,,0.00,weatherlink.com 1.10,2013-04-13 00:04:00,
2013-04-12 20:19:00,41.7,37.0,29.86,WSW,244,12.0,-999.0,82,-99.99,,,0.00,weatherlink.com 1.10,2013-04-13 00:19:00,
2013-04-12 20:34:00,41.5,37.0,29.86,WSW,251,11.0,-999.0,83,-99.99,,,0.00,weatherlink.com 1.10,2013-04-13 00:34:00,
2013-04-12 20:49:00,41.4,36.0,29.86,SW,233,9.0,-999.0,82,-99.99,,,0.00,weatherlink.com 1.10,2013-04-13 00:49:00,
2013-04-12 21:04:00,41.1,37.0,29.86,WSW,253,11.0,-999.0,84,-99.99,,,0.00,weatherlink.com 1.10,2013-04-13 01:04:00,
2013-04-12 21:19:00,40.9,37.0,29.86,WSW,254,7.0,-999.0,85,-99.99,,,0.00,weatherlink.com 1.10,2013-04-13 01:19:00,
2013-04-12 21:34:00,40.9,37.0,29.87,SW,233,8.0,-999.0,86,-99.99,,,0.00,weatherlink.com 1.10,2013-04-13 01:34:00,
2013-04-12 21:49:00,40.9,37.0,29.88,WSW,237,7.0,-999.0,86,-99.99,,,0.00,weatherlink.com 1.10,2013-04-13 01:49:00,
2013-04-12 22:04:00,40.9,37.0,29.88,WSW,242,11.0,-999.0,86,-99.99,,,0.00,weatherlink.com 1.10,2013-04-13 02:04:00,
2013-04-12 22:19:00,40.9,37.0,29.88,WSW,239,9.0,-999.0,86,-99.99,,,0.00,weatherlink.com 1.10,2013-04-13 02:19:00,
2013-04-12 22:34:00,40.8,37.0,29.89,SW,234,8.0,-999.0,86,-99.99,,,0.00,weatherlink.com 1.10,2013-04-13 02:34:00,
2013-04-12 22:49:00,40.9,37.0,29.89,WSW,257,9.0,-999.0,86,-99.99,,,0.00,weatherlink.com 1.10,2013-04-13 02:49:00,
2013-04-12 23:04:00,40.8,37.0,29.89,WSW,243,13.0,-999.0,86,-99.99,,,0.00,weatherlink.com 1.10,2013-04-13 03:04:00,
2013-04-12 23:19:00,40.7,37.0,29.89,WSW,244,7.0,-999.0,87,-99.99,,,0.00,weatherlink.com 1.10,2013-04-13 03:19:00,
2013-04-12 23:34:00,40.6,37.0,29.89,WSW,238,7.0,-999.0,87,-99.99,,,0.00,weatherlink.com 1.10,2013-04-13 03:34:00,
2013-04-12 23:49:00,40.6,37.0,29.89,WSW,246,8.0,-999.0,87,-99.99,,,0.00,weatherlink.com 1.10,2013-04-13 03:49:00,